カタログに戻る

STARLINK-3776

運用中通信VLEO
NORAD 52288·PAYLOAD·🇺🇸 United States

打ち上げ Apr 21, 2022 から Cape Canaveral Space Force Station

Loading…

次のパス (今後24時間)

TLE

最新Source: CelesTrak SupGP

元期: Sep 15, 2026, 02:47 UTC

1 52288C 22041AD  26258.11645833  .00041316  00000+0  12201-2 0  2588
2 52288  53.1575 316.5648 0001336  95.8150 283.4160 15.34385223    18

AllMySatでSTARLINK-3776をリアルタイム追跡

Download on the App Store